Time,TemperatureF,DewpointF,PressureIn,WindDirection,WindDirectionDegrees,WindSpeedMPH,WindSpeedGustMPH,Humidity,HourlyPrecipIn,Conditions,Clouds,dailyrainin,SoftwareType,DateUTC
2013-03-12 00:02:00,30.8,29.0,30.15,SSE,167,0.0,0.0,91,0.00,,,0.00,weatherlink.com 1.10,2013-03-12 06:02:00,
2013-03-12 00:17:00,30.6,28.0,30.15,SSE,166,0.0,0.0,91,0.00,,,0.00,weatherlink.com 1.10,2013-03-12 06:17:00,
2013-03-12 00:32:00,30.6,28.0,30.15,SSE,166,0.0,0.0,91,0.00,,,0.00,weatherlink.com 1.10,2013-03-12 06:32:00,
2013-03-12 00:47:00,30.8,29.0,30.15,SSE,155,0.0,1.0,92,0.00,,,0.00,weatherlink.com 1.10,2013-03-12 06:47:00,
2013-03-12 01:02:00,31.0,29.0,30.15,SSE,155,0.0,0.0,91,0.00,,,0.00,weatherlink.com 1.10,2013-03-12 07:02:00,
2013-03-12 01:17:00,31.0,29.0,30.15,South,170,0.0,1.0,92,0.00,,,0.00,weatherlink.com 1.10,2013-03-12 07:17:00,
2013-03-12 01:32:00,30.9,29.0,30.16,SSE,155,0.0,1.0,92,0.00,,,0.00,weatherlink.com 1.10,2013-03-12 07:32:00,
2013-03-12 01:47:00,30.8,29.0,30.17,SSE,155,0.0,0.0,92,0.00,,,0.00,weatherlink.com 1.10,2013-03-12 07:47:00,
2013-03-12 02:02:00,30.7,29.0,30.18,SSE,155,0.0,0.0,93,0.00,,,0.00,weatherlink.com 1.10,2013-03-12 08:02:00,
2013-03-12 02:17:00,30.6,29.0,30.18,SSE,155,0.0,0.0,93,0.00,,,0.00,weatherlink.com 1.10,2013-03-12 08:17:00,
2013-03-12 02:32:00,30.6,29.0,30.18,SSE,155,0.0,0.0,93,0.00,,,0.00,weatherlink.com 1.10,2013-03-12 08:32:00,
2013-03-12 02:47:00,30.7,29.0,30.18,SSE,155,0.0,0.0,93,0.00,,,0.00,weatherlink.com 1.10,2013-03-12 08:47:00,
2013-03-12 03:02:00,29.6,28.0,30.18,ENE,67,0.0,3.0,92,0.00,,,0.00,weatherlink.com 1.10,2013-03-12 09:02:00,
2013-03-12 03:17:00,28.7,27.0,30.19,ENE,60,0.0,2.0,92,0.00,,,0.00,weatherlink.com 1.10,2013-03-12 09:17:00,
2013-03-12 03:33:00,27.9,26.0,30.19,SE,132,0.0,3.0,91,0.00,,,0.00,weatherlink.com 1.10,2013-03-12 09:33:00,
2013-03-12 03:48:00,27.7,26.0,30.18,East,87,0.0,1.0,91,0.00,,,0.00,weatherlink.com 1.10,2013-03-12 09:48:00,
2013-03-12 04:03:00,27.6,25.0,30.19,East,80,0.0,1.0,91,0.00,,,0.00,weatherlink.com 1.10,2013-03-12 10:03:00,
2013-03-12 04:18:00,27.8,26.0,30.20,NNW,333,0.0,1.0,91,0.00,,,0.00,weatherlink.com 1.10,2013-03-12 10:18:00,
2013-03-12 04:33:00,27.7,26.0,30.21,East,80,0.0,2.0,91,0.00,,,0.00,weatherlink.com 1.10,2013-03-12 10:33:00,
2013-03-12 04:48:00,27.5,25.0,30.22,East,86,2.0,2.0,90,0.00,,,0.00,weatherlink.com 1.10,2013-03-12 10:48:00,
2013-03-12 05:03:00,27.0,24.0,30.23,ESE,107,0.0,2.0,89,0.00,,,0.00,weatherlink.com 1.10,2013-03-12 11:03:00,
2013-03-12 05:18:00,26.8,24.0,30.23,ENE,72,0.0,1.0,90,0.00,,,0.00,weatherlink.com 1.10,2013-03-12 11:18:00,
2013-03-12 05:33:00,26.7,24.0,30.24,East,92,0.0,1.0,90,0.00,,,0.00,weatherlink.com 1.10,2013-03-12 11:33:00,
2013-03-12 05:48:00,26.8,24.0,30.25,ENE,78,0.0,1.0,90,0.00,,,0.00,weatherlink.com 1.10,2013-03-12 11:48:00,
2013-03-12 06:03:00,26.9,25.0,30.25,NE,40,0.0,1.0,91,0.00,,,0.00,weatherlink.com 1.10,2013-03-12 12:03:00,
2013-03-12 06:18:00,26.9,24.0,30.25,East,94,0.0,1.0,90,0.00,,,0.00,weatherlink.com 1.10,2013-03-12 12:18:00,
2013-03-12 06:33:00,26.8,25.0,30.26,East,95,0.0,1.0,91,0.00,,,0.00,weatherlink.com 1.10,2013-03-12 12:33:00,
2013-03-12 06:48:00,26.7,25.0,30.26,ESE,107,0.0,0.0,91,0.00,,,0.00,weatherlink.com 1.10,2013-03-12 12:48:00,
2013-03-12 07:03:00,26.6,24.0,30.27,ESE,102,0.0,1.0,91,0.00,,,0.00,weatherlink.com 1.10,2013-03-12 13:03:00,
2013-03-12 07:18:00,26.6,24.0,30.27,ESE,102,0.0,1.0,91,0.00,,,0.00,weatherlink.com 1.10,2013-03-12 13:18:00,
2013-03-12 07:33:00,26.7,25.0,30.28,ENE,69,0.0,0.0,91,0.00,,,0.00,weatherlink.com 1.10,2013-03-12 13:33:00,
2013-03-12 07:48:00,24.9,21.0,30.29,ENE,63,0.0,3.0,86,0.00,,,0.00,weatherlink.com 1.10,2013-03-12 13:48:00,
2013-03-12 08:03:00,24.7,21.0,30.30,ENE,68,0.0,3.0,86,0.00,,,0.00,weatherlink.com 1.10,2013-03-12 14:03:00,
2013-03-12 08:18:00,24.8,21.0,30.30,North,6,2.0,2.0,85,0.00,,,0.00,weatherlink.com 1.10,2013-03-12 14:18:00,
2013-03-12 08:33:00,25.2,21.0,30.31,ENE,75,0.0,2.0,85,0.00,,,0.00,weatherlink.com 1.10,2013-03-12 14:33:00,
2013-03-12 08:48:00,25.4,21.0,30.32,North,352,0.0,3.0,83,0.00,,,0.00,weatherlink.com 1.10,2013-03-12 14:48:00,
2013-03-12 09:03:00,25.9,21.0,30.32,East,88,0.0,2.0,82,0.00,,,0.00,weatherlink.com 1.10,2013-03-12 15:03:00,
2013-03-12 09:18:00,26.3,21.0,30.32,East,93,1.0,3.0,80,0.00,,,0.00,weatherlink.com 1.10,2013-03-12 15:18:00,
2013-03-12 09:33:00,26.7,21.0,30.33,NE,46,0.0,2.0,80,0.00,,,0.00,weatherlink.com 1.10,2013-03-12 15:33:00,
2013-03-12 09:48:00,26.9,21.0,30.33,East,96,1.0,4.0,78,0.00,,,0.00,weatherlink.com 1.10,2013-03-12 15:48:00,
2013-03-12 10:03:00,27.3,21.0,30.33,East,83,0.0,2.0,78,0.00,,,0.00,weatherlink.com 1.10,2013-03-12 16:03:00,
2013-03-12 10:18:00,27.3,21.0,30.33,ENE,63,0.0,2.0,77,0.00,,,0.00,weatherlink.com 1.10,2013-03-12 16:18:00,
2013-03-12 10:33:00,27.7,21.0,30.33,ESE,109,0.0,2.0,77,0.00,,,0.00,weatherlink.com 1.10,2013-03-12 16:33:00,
2013-03-12 10:48:00,27.7,21.0,30.34,East,80,0.0,2.0,75,0.00,,,0.00,weatherlink.com 1.10,2013-03-12 16:48:00,
2013-03-12 11:03:00,27.8,21.0,30.34,East,89,0.0,2.0,75,0.00,,,0.00,weatherlink.com 1.10,2013-03-12 17:03:00,
2013-03-12 11:18:00,28.1,21.0,30.34,ESE,103,1.0,3.0,75,0.00,,,0.00,weatherlink.com 1.10,2013-03-12 17:18:00,
2013-03-12 11:35:00,28.4,21.0,30.34,ESE,102,0.0,2.0,73,0.00,,,0.00,weatherlink.com 1.10,2013-03-12 17:35:00,
2013-03-12 11:49:00,28.6,21.0,30.33,East,85,1.0,4.0,74,0.00,,,0.00,weatherlink.com 1.10,2013-03-12 17:49:00,
2013-03-12 12:04:00,28.8,22.0,30.34,East,92,0.0,4.0,74,0.00,,,0.00,weatherlink.com 1.10,2013-03-12 18:04:00,
2013-03-12 12:19:00,29.4,22.0,30.34,East,87,1.0,2.0,74,0.00,,,0.00,weatherlink.com 1.10,2013-03-12 18:19:00,
2013-03-12 12:34:00,30.1,22.0,30.34,East,91,4.0,4.0,73,0.00,,,0.00,weatherlink.com 1.10,2013-03-12 18:34:00,
2013-03-12 12:49:00,30.3,23.0,30.34,ENE,74,1.0,5.0,73,0.00,,,0.00,weatherlink.com 1.10,2013-03-12 18:49:00,
2013-03-12 13:04:00,32.1,24.0,30.34,NE,49,2.0,3.0,71,0.00,,,0.00,weatherlink.com 1.10,2013-03-12 19:04:00,
2013-03-12 13:19:00,32.5,23.0,30.33,ENE,68,4.0,5.0,69,0.00,,,0.00,weatherlink.com 1.10,2013-03-12 19:19:00,
2013-03-12 13:34:00,33.6,24.0,30.32,ESE,108,1.0,4.0,69,0.00,,,0.00,weatherlink.com 1.10,2013-03-12 19:34:00,
2013-03-12 13:49:00,34.2,23.0,30.32,East,79,1.0,5.0,65,0.00,,,0.00,weatherlink.com 1.10,2013-03-12 19:49:00,
2013-03-12 14:04:00,35.2,25.0,30.32,ESE,105,0.0,2.0,67,0.00,,,0.00,weatherlink.com 1.10,2013-03-12 20:04:00,
2013-03-12 14:19:00,36.2,25.0,30.31,NNW,336,0.0,3.0,63,0.00,,,0.00,weatherlink.com 1.10,2013-03-12 20:19:00,
2013-03-12 14:34:00,35.1,25.0,30.30,ENE,63,0.0,4.0,67,0.00,,,0.00,weatherlink.com 1.10,2013-03-12 20:34:00,
2013-03-12 14:49:00,36.8,26.0,30.30,SE,127,0.0,4.0,64,0.01,,,0.01,weatherlink.com 1.10,2013-03-12 20:49:00,
2013-03-12 15:04:00,37.5,26.0,30.29,NNE,18,0.0,3.0,64,0.05,,,0.05,weatherlink.com 1.10,2013-03-12 21:04:00,
2013-03-12 15:19:00,37.1,26.0,30.29,NW,313,0.0,4.0,65,0.08,,,0.08,weatherlink.com 1.10,2013-03-12 21:19:00,
2013-03-12 15:34:00,37.9,27.0,30.29,North,5,0.0,2.0,65,0.10,,,0.10,weatherlink.com 1.10,2013-03-12 21:34:00,
2013-03-12 15:49:00,38.0,27.0,30.28,North,353,0.0,3.0,66,0.11,,,0.12,weatherlink.com 1.10,2013-03-12 21:49:00,
2013-03-12 16:04:00,38.0,27.0,30.27,NNW,336,0.0,3.0,65,0.09,,,0.14,weatherlink.com 1.10,2013-03-12 22:04:00,
2013-03-12 16:19:00,39.8,28.0,30.28,SSW,211,0.0,2.0,62,0.07,,,0.15,weatherlink.com 1.10,2013-03-12 22:19:00,
2013-03-12 16:34:00,39.4,27.0,30.28,North,8,2.0,2.0,62,0.05,,,0.16,weatherlink.com 1.10,2013-03-12 22:34:00,
2013-03-12 16:49:00,40.8,29.0,30.28,NNW,346,3.0,4.0,62,0.04,,,0.17,weatherlink.com 1.10,2013-03-12 22:49:00,
2013-03-12 17:05:00,41.4,28.0,30.28,NNW,333,1.0,4.0,60,0.04,,,0.18,weatherlink.com 1.10,2013-03-12 23:05:00,
2013-03-12 17:19:00,41.6,29.0,30.28,ENE,78,0.0,3.0,61,0.04,,,0.19,weatherlink.com 1.10,2013-03-12 23:19:00,
2013-03-12 17:34:00,40.7,29.0,30.28,West,267,0.0,6.0,64,0.02,,,0.19,weatherlink.com 1.10,2013-03-12 23:34:00,
2013-03-12 17:49:00,39.5,30.0,30.27,North,6,1.0,4.0,68,0.02,,,0.19,weatherlink.com 1.10,2013-03-12 23:49:00,
2013-03-12 18:04:00,39.5,30.0,30.27,West,269,2.0,3.0,68,0.02,,,0.20,weatherlink.com 1.10,2013-03-13 00:04:00,
2013-03-12 18:19:00,37.8,29.0,30.28,NNW,336,2.0,3.0,71,0.01,,,0.20,weatherlink.com 1.10,2013-03-13 00:19:00,
2013-03-12 18:34:00,36.4,29.0,30.28,NNW,342,3.0,3.0,74,0.01,,,0.20,weatherlink.com 1.10,2013-03-13 00:34:00,
2013-03-12 18:49:00,35.4,29.0,30.28,North,350,0.0,2.0,76,0.01,,,0.20,weatherlink.com 1.10,2013-03-13 00:49:00,
2013-03-12 19:04:00,34.8,28.0,30.28,NNW,328,0.0,1.0,77,0.00,,,0.20,weatherlink.com 1.10,2013-03-13 01:04:00,
2013-03-12 19:19:00,34.2,28.0,30.29,NNW,328,0.0,0.0,78,0.00,,,0.20,weatherlink.com 1.10,2013-03-13 01:19:00,
2013-03-12 19:34:00,34.0,28.0,30.30,NNW,328,0.0,0.0,79,0.00,,,0.20,weatherlink.com 1.10,2013-03-13 01:34:00,
2013-03-12 19:49:00,33.3,28.0,30.30,NNW,327,0.0,0.0,81,0.00,,,0.20,weatherlink.com 1.10,2013-03-13 01:49:00,
2013-03-12 20:05:00,32.8,28.0,30.30,NNW,328,0.0,0.0,82,0.00,,,0.20,weatherlink.com 1.10,2013-03-13 02:05:00,
2013-03-12 20:20:00,32.8,28.0,30.30,NNW,327,0.0,0.0,82,0.00,,,0.20,weatherlink.com 1.10,2013-03-13 02:20:00,
2013-03-12 20:34:00,32.6,28.0,30.29,NNW,328,0.0,0.0,83,0.00,,,0.20,weatherlink.com 1.10,2013-03-13 02:34:00,
2013-03-12 20:49:00,32.5,28.0,30.29,West,275,0.0,0.0,83,0.00,,,0.20,weatherlink.com 1.10,2013-03-13 02:49:00,
2013-03-12 21:05:00,32.5,28.0,30.28,SE,140,0.0,1.0,83,0.00,,,0.20,weatherlink.com 1.10,2013-03-13 03:05:00,
2013-03-12 21:20:00,32.2,28.0,30.29,SE,140,0.0,0.0,83,0.00,,,0.20,weatherlink.com 1.10,2013-03-13 03:20:00,
2013-03-12 21:35:00,32.0,28.0,30.29,SE,139,0.0,0.0,84,0.00,,,0.20,weatherlink.com 1.10,2013-03-13 03:35:00,
2013-03-12 21:50:00,31.4,27.0,30.29,SE,140,0.0,0.0,84,0.00,,,0.20,weatherlink.com 1.10,2013-03-13 03:50:00,
2013-03-12 22:05:00,31.2,27.0,30.30,SE,140,0.0,0.0,85,0.00,,,0.20,weatherlink.com 1.10,2013-03-13 04:05:00,
2013-03-12 22:20:00,30.7,27.0,30.31,SE,139,0.0,0.0,86,0.00,,,0.20,weatherlink.com 1.10,2013-03-13 04:20:00,
2013-03-12 22:35:00,30.5,27.0,30.31,SE,140,0.0,0.0,86,0.00,,,0.20,weatherlink.com 1.10,2013-03-13 04:35:00,
2013-03-12 22:50:00,30.7,27.0,30.32,SE,138,0.0,1.0,86,0.00,,,0.20,weatherlink.com 1.10,2013-03-13 04:50:00,
2013-03-12 23:05:00,30.6,27.0,30.32,NW,319,0.0,1.0,85,0.00,,,0.20,weatherlink.com 1.10,2013-03-13 05:05:00,
2013-03-12 23:20:00,30.4,26.0,30.33,North,11,1.0,2.0,85,0.00,,,0.20,weatherlink.com 1.10,2013-03-13 05:20:00,
2013-03-12 23:35:00,30.0,26.0,30.32,NNW,330,0.0,1.0,85,0.00,,,0.20,weatherlink.com 1.10,2013-03-13 05:35:00,
2013-03-12 23:50:00,29.7,26.0,30.33,NW,309,0.0,1.0,85,0.00,,,0.20,weatherlink.com 1.10,2013-03-13 05:50:00,